Location: Home
(42.5358°N, 72.7383°W)
Time: 08:49:19
(UTC-05:00)

Courier 1B - Pass Details

Date: 07 December 2021
Orbit: 962 x 1209 km, 28.3° (Epoch: 21 January)

Event Time Altitude Azimuth Distance (km) Brightness Sun altitude
Rises 16:53:11 0° 247° (WSW) 4,068 13.5 -6.6°
Reaches altitude 10° 16:56:32 10° 235° (SW) 3,077 11.8 -7.2°
Maximum altitude 17:02:38 27° 182° (S) 2,040 9.5 -8.2°
Drops below altitude 10° 17:08:28 10° 128° (SE) 2,939 9.7 -9.2°
Sets 17:11:36 0° 117° (ESE) 3,853 10.2 -9.7°
